Location: Newark
(48.0000°N, 67.0000°E)
Time: 00:32:19
(UTC+00:00)

N. Korean satellite - Pass Details

Date: 26 January 2020
Orbit: 456 x 505 km, 97.2° (Epoch: 24 February)

Event Time Altitude Azimuth Distance (km) Brightness Sun altitude
Rises 00:34:02 0° 26° (NNE) 2,540 10.5 -25.6°
Reaches altitude 10° 00:36:29 10° 43° (NE) 1,665 9.8 -25.2°
Maximum altitude 00:39:14 21° 93° (E) 1,155 9.3 -24.7°
Drops below altitude 10° 00:42:00 10° 144° (SE) 1,676 9.7 -24.2°
Sets 00:44:28 0° 161° (SSE) 2,561 10.5 -23.8°
